Miscellaneous Local Product
Issued by NWS North Platte, NE

Home | Current Version | Previous Version | Text Only | Print | Product List | Glossary On
Versions: 1 2 3 4 5 6 7 8 9 10 11 12 13 14 15 16 17 18 19 20 21 22 23 24 25 26 27 28 29 30 31 32 33 34 35 36 37 38 39 40 41 42 43 44 45 46 47 48 49 50
000
AXUS43 KLBF 181610
MISLBF


WESTERN AND NORTH CENTRAL NEBRASKA HOURLY WEATHER ROUNDUP
NATIONAL WEATHER SERVICE NORTH PLATTE NE
1000 AM CST THU DEC 18 2014

***STATIONS NOT REPORTING VARIABLES SUCH AS SKY/WEATHER OR
PRESSURE ARE PROVIDED BY THE NEBRASKA DEPARTMENT OF
ROADS...RAWS...AND APRS NETWORKS...AND ARE NOT UNDER
NATIONAL WEATHER SERVICE QUALITY CONTROL***

...OBSERVATIONS IN AND NEAR THE EASTERN PANHANDLE OF NEBRASKA...

CITY           SKY/WX    TMP DP  RH WIND       PRES   REMARKS
PINE RIDGE     SUNNY     12   7  80 CALM      30.04R
CHADRON        SUNNY     10   6  84 SW8       30.05S WCI  -2
ALLIANCE       MOSUNNY    6   3  87 SW5       30.03R WCI  -3
SIDNEY         MOSUNNY   21  17  84 W10       30.04R WCI  10
WHITECLAY        N/A     13   7  76 SE3         N/A
CRESCENT LAKE    N/A     15  11  84 CALM        N/A
LISCO            N/A     14   9  80 W3          N/A
BIG SPRINGS      N/A     18  16  93 W3          N/A
$$

...OBSERVATIONS IN NORTH CENTRAL NEBRASKA...

CITY           SKY/WX    TMP DP  RH WIND       PRES   REMARKS
VALENTINE      CLOUDY    26  22  84 SW5       30.08R WCI  20
THEDFORD       CLOUDY    26  24  91 SW5       30.09R WCI  21
AINSWORTH      CLOUDY    25  24  93 CALM      30.09S
O`NEILL        CLOUDY    25  23  95 S5        30.16S WCI  19
ORD            CLOUDY    24  21  88 SE6       30.16R FOG     WCI  17
BROKEN BOW     CLOUDY    25  24  96 S8        30.13R FOG     WCI  16
BROWNLEE         N/A     24  22  93 CALM        N/A
SPRINGVIEW       N/A     26  22  86 S3          N/A
BREWSTER         N/A     28  26  92 SW5         N/A  WCI  23
ROSE             N/A     28  28 100 MISG        N/A
SARGENT          N/A     24  22  93 CALM        N/A
COMSTOCK         N/A     30  28  92 S7          N/A  WCI  23
CHAMBERS         N/A     25  22  87 CALM        N/A
$$

...OBSERVATIONS IN SOUTHWEST NEBRASKA AND FAR NORTHEAST COLORADO...

CITY           SKY/WX    TMP DP  RH WIND       PRES   REMARKS
WRAY           FAIR      17  16  95 W6        30.08S WCI   9
IMPERIAL       CLOUDY    25  23  92 W7        30.10R FOG     WCI  17
OGALLALA       FOG       22  21  96 W7        30.09R VSB 3/4 WCI  14
NORTH PLATTE   CLOUDY    26  23  88 SW7       30.11S WCI  18
MCCOOK         CLOUDY    24  22  91 SW5       30.14R WCI  18
LEXINGTON      CLOUDY    27  24  91 S5        30.15R WCI  21
PAXTON           N/A     25  24  93 CALM        N/A
BRADY            N/A     25  23  91 CALM        N/A
GOTHENBURG       N/A     25  22  89 CALM        N/A
CALLAWAY         N/A     24  23  95 CALM        N/A
$$

...NORTH PLATTE AREA...

CITY           SKY/WX    TMP DP  RH WIND       PRES   REMARKS
AIRPORT        CLOUDY    26  23  88 SW7       30.11S WCI  18
DOWNTOWN         N/A     25  23  91 S3          N/A
$$

...SOME WEATHER OBSERVATIONS FROM AROUND THE REGION...

CITY           SKY/WX    TMP DP  RH WIND       PRES   REMARKS
DENVER         PTSUNNY   28  27  96 S6        30.04R FOG     WCI  22
LARAMIE        MOSUNNY   21  16  81 SW9       30.00R WCI  11
CHEYENNE       SUNNY     31  16  54 W13       30.02R WCI  21
SCOTTSBLUFF    CLOUDY     7   4  87 NW5       30.06S FOG     WCI  -2
RAPID CITY     FOG       20  19  96 SE5       30.00S VSB<1/4 WCI  13
PIERRE         CLOUDY    23  21  92 SE6       30.11R WCI  16
WINNER         CLOUDY    25  21  85 SE7       30.11S WCI  17
SIOUX FALLS    CLOUDY    21  18  88 SE7       30.22S WCI  12
OMAHA          LGT SNOW  27  24  89 SE6       30.27R FOG     WCI  20
GRAND ISLAND   CLOUDY    24  22  91 S5        30.20S WCI  18
KANSAS CITY    LGT SNOW  29  27  92 E6        30.24R FOG     WCI  23
WICHITA        FOG       32  30  92 N3        30.20R VSB 1/2
HAYS           CLOUDY    27  18  69 CALM      30.18S
LIBERAL        CLOUDY    34  28  80 N8        30.15R WCI  27
GOODLAND       FOG       23  23 100 SW6       30.10R VSB 1/2 WCI  16
$$



USA.gov is the U.S. government's official web portal to all federal, state and local government web resources and services.